San Antonio, Texas
Traffic Map
Current Weather Conditions
San Antonio, Texas
Clear
Clear
14°
Feels Like: 14°
Wind Chill: 14° Ceiling: Unl
Heat Index: 14° Visibility: 10mi
Dew Point: Wind: 6mph
Humidity: 43% Direction: ° ()
Pressure: 30.1in Gusts: 0mph
Raw Report DataKSKF 251558Z AUTO VRB05KT 10SM CLR 14/01 A3010 RMK AO2 SLP193 T01370012 $
Traffic Incident Summary
Active as of:
Severity:
Category:
InformationThere was an issue retrieving the traffic information for this location. Please try a different location or try again shortly.
Advertisements
Track Severe Weather on mobile